| time (UTC) | temp F | wind direction | speed knots | gust knots | rain 1hr in | rain 24hr in | rain mn in | humidity % | barometer mb |
| 20260906153055 | 75 | 35 | 0.9 | 9.6 | 0.00 | 0.00 | 0.00 | 83 | 1017.7 |
| 20260906151551 | 74 | 62 | 2.6 | 7.0 | 0.00 | 0.00 | 0.00 | 86 | 1017.8 |
| 20260906150051 | 72 | 64 | 3.5 | 7.8 | 0.00 | 0.00 | 0.00 | 88 | 1017.7 |
| 20260906144547 | 71 | 62 | 2.6 | 7.0 | 0.00 | 0.00 | 0.00 | 90 | 1017.4 |
| 20260906143050 | 71 | 23 | 2.6 | 8.7 | 0.00 | 0.00 | 0.00 | 90 | 1017.4 |
| 20260906141544 | 70 | 126 | 2.6 | 7.0 | 0.00 | 0.00 | 0.00 | 91 | 1017.4 |
| 20260906140057 | 70 | 22 | 2.6 | 7.8 | 0.00 | 0.00 | 0.00 | 92 | 1017.3 |
| 20260906134549 | 69 | 80 | 3.5 | 10.4 | 0.00 | 0.00 | 0.00 | 93 | 1017.2 |
| 20260906133041 | 69 | 56 | 3.5 | 8.7 | 0.00 | 0.00 | 0.00 | 94 | 1017.1 |
| 20260906131541 | 68 | 55 | 4.3 | 8.7 | 0.00 | 0.00 | 0.00 | 94 | 1017.0 |
| 20260906130042 | 68 | 60 | 3.5 | 6.1 | 0.00 | 0.00 | 0.00 | 95 | 1017.1 |
| 20260906124542 | 67 | 65 | 1.7 | 4.3 | 0.00 | 0.00 | 0.00 | 95 | 1017.3 |
| 20260906123038 | 67 | 67 | 1.7 | 5.2 | 0.00 | 0.00 | 0.00 | 95 | 1017.2 |
| 20260906121538 | 67 | 42 | 0.9 | 4.3 | 0.00 | 0.00 | 0.00 | 95 | 1017.2 |
| 20260906120035 | 67 | 50 | 1.7 | 4.3 | 0.00 | 0.00 | 0.00 | 95 | 1016.8 |
| 20260906114542 | 67 | 77 | 1.7 | 7.0 | 0.00 | 0.00 | 0.00 | 95 | 1016.7 |
| 20260906113030 | 66 | 35 | 2.6 | 6.1 | 0.00 | 0.00 | 0.00 | 95 | 1016.2 |
| 20260906111530 | 66 | 28 | 1.7 | 4.3 | 0.00 | 0.00 | 0.00 | 94 | 1016.0 |
| 20260906110025 | 66 | 49 | 0.9 | 4.3 | 0.00 | 0.00 | 0.00 | 94 | 1015.9 |
| 20260906104522 | 67 | 55 | 2.6 | 5.2 | 0.00 | 0.00 | 0.00 | 94 | 1015.6 |
| 20260906103021 | 67 | 58 | 2.6 | 5.2 | 0.00 | 0.00 | 0.00 | 94 | 1015.5 |
| 20260906101522 | 67 | 47 | 2.6 | 4.3 | 0.00 | 0.00 | 0.00 | 93 | 1015.2 |
| 20260906100018 | 68 | 43 | 1.7 | 7.0 | 0.00 | 0.00 | 0.00 | 93 | 1015.0 |
| 20260906094518 | 68 | 51 | 2.6 | 7.8 | 0.00 | 0.00 | 0.00 | 93 | 1015.0 |
| 20260906093016 | 68 | 41 | 2.6 | 5.2 | 0.00 | 0.00 | 0.00 | 93 | 1015.1 |
| 20260906091518 | 68 | 41 | 1.7 | 4.3 | 0.00 | 0.00 | 0.00 | 92 | 1015.2 |
| 20260906090012 | 69 | 33 | 0.9 | 3.5 | 0.00 | 0.00 | 0.00 | 92 | 1015.1 |
| 20260906084511 | 69 | 29 | 1.7 | 3.5 | 0.00 | 0.00 | 0.00 | 92 | 1015.2 |
| 20260906083011 | 69 | 32 | 1.7 | 7.0 | 0.00 | 0.00 | 0.00 | 91 | 1015.2 |
| 20260906081508 | 69 | 34 | 2.6 | 4.3 | 0.00 | 0.00 | 0.00 | 91 | 1015.2 |
| 20260906080008 | 70 | 69 | 1.7 | 5.2 | 0.00 | 0.00 | 0.00 | 90 | 1015.1 |
| 20260906074504 | 70 | 50 | 2.6 | 4.3 | 0.00 | 0.00 | 0.00 | 90 | 1015.0 |
| 20260906073003 | 71 | 54 | 2.6 | 7.0 | 0.00 | 0.00 | 0.00 | 89 | 1015.0 |
| 20260906071611 | 71 | 74 | 2.6 | 7.8 | 0.00 | 0.00 | 0.00 | 89 | 1015.3 |
| 20260906070100 | 71 | 39 | 2.6 | 7.8 | 0.00 | 0.00 | 0.00 | 88 | 1015.4 |
| 20260906064559 | 71 | 41 | 4.3 | 8.7 | 0.00 | 0.00 | 0.00 | 89 | 1015.5 |
| 20260906063054 | 72 | 58 | 4.3 | 11.3 | 0.00 | 0.00 | 0.00 | 89 | 1015.2 |
| 20260906061552 | 72 | 74 | 3.5 | 10.4 | 0.00 | 0.00 | 0.00 | 88 | 1015.2 |
| 20260906060122 | 72 | 51 | 4.3 | 10.4 | 0.00 | 0.00 | 0.00 | 87 | 1015.3 |
| 20260906054548 | 73 | 46 | 3.5 | 10.4 | 0.00 | 0.00 | 0.00 | 87 | 1015.4 |
| 20260906053045 | 73 | 57 | 4.3 | 9.6 | 0.00 | 0.00 | 0.00 | 87 | 1015.3 |
| 20260906051543 | 73 | 55 | 6.1 | 12.2 | 0.00 | 0.00 | 0.00 | 87 | 1015.1 |
| 20260906050040 | 73 | 53 | 5.2 | 8.7 | 0.00 | 0.00 | 0.00 | 88 | 1015.1 |
| 20260906044537 | 74 | 39 | 3.5 | 9.6 | 0.00 | 0.00 | 0.00 | 88 | 1015.2 |
| 20260906043039 | 74 | 23 | 3.5 | 8.7 | 0.00 | 0.00 | 0.00 | 88 | 1014.9 |
| 20260906041535 | 74 | 29 | 2.6 | 11.3 | 0.00 | 0.00 | 0.00 | 89 | 1014.5 |
| 20260906040035 | 74 | 50 | 1.7 | 5.2 | 0.00 | 0.00 | 0.00 | 88 | 1014.3 |
| 20260906034532 | 74 | 52 | 2.6 | 5.2 | 0.00 | 0.00 | 0.00 | 88 | 1014.0 |
| 20260906033026 | 74 | 27 | 1.7 | 3.5 | 0.00 | 0.00 | 0.00 | 88 | 1014.0 |
| 20260906031542 | 74 | 86 | 0.0 | 0.9 | 0.00 | 0.00 | 0.00 | 87 | 1014.1 |
| 20260906030022 | 74 | 86 | 0.0 | 3.5 | 0.00 | 0.00 | 0.00 | 87 | 1013.7 |
| 20260906024523 | 74 | 86 | 1.7 | 3.5 | 0.00 | 0.00 | 0.00 | 87 | 1013.7 |
| 20260906023019 | 74 | 62 | 0.9 | 4.3 | 0.00 | 0.00 | 0.00 | 88 | 1013.4 |
| 20260906021521 | 74 | 56 | 0.9 | 2.6 | 0.00 | 0.00 | 0.00 | 87 | 1013.4 |
| 20260906020016 | 74 | 56 | 1.7 | 5.2 | 0.00 | 0.00 | 0.00 | 86 | 1013.1 |
| 20260906014523 | 74 | 51 | 1.7 | 5.2 | 0.00 | 0.00 | 0.00 | 86 | 1013.1 |
| 20260906013013 | 75 | 74 | 2.6 | 6.1 | 0.00 | 0.00 | 0.00 | 85 | 1012.8 |
| 20260906011512 | 76 | 70 | 2.6 | 7.0 | 0.00 | 0.00 | 0.00 | 84 | 1012.7 |
| 20260906010013 | 77 | 22 | 3.5 | 7.8 | 0.00 | 0.00 | 0.00 | 82 | 1012.9 |
| 20260906004511 | 78 | 36 | 6.1 | 11.3 | 0.00 | 0.00 | 0.00 | 81 | 1012.8 |
| 20260906003009 | 79 | 40 | 5.2 | 12.2 | 0.00 | 0.00 | 0.00 | 79 | 1012.8 |
| 20260906001509 | 81 | 50 | 5.2 | 10.4 | 0.00 | 0.00 | 0.00 | 77 | 1012.9 |
| 20260906000008 | 82 | 5 | 4.3 | 10.4 | 0.00 | 0.00 | 0.00 | 75 | 1012.6 |
| 20260905234507 | 83 | 26 | 3.5 | 13.0 | 0.00 | 0.00 | 0.00 | 73 | 1012.5 |
| 20260905233005 | 85 | 35 | 5.2 | 13.0 | 0.00 | 0.00 | 0.00 | 73 | 1012.4 |
| 20260905231505 | 86 | 10 | 2.6 | 12.2 | 0.00 | 0.00 | 0.00 | 72 | 1012.3 |
| 20260905230004 | 87 | 21 | 7.8 | 13.0 | 0.00 | 0.00 | 0.00 | 72 | 1012.3 |
| 20260905224504 | 87 | 23 | 3.5 | 12.2 | 0.00 | 0.00 | 0.00 | 71 | 1012.5 |
| 20260905223003 | 88 | 355 | 1.7 | 13.9 | 0.00 | 0.00 | 0.00 | 70 | 1012.3 |
| 20260905221502 | 88 | 50 | 7.0 | 13.0 | 0.00 | 0.00 | 0.00 | 69 | 1012.0 |
| 20260905220001 | 89 | 18 | 6.1 | 13.0 | 0.00 | 0.00 | 0.00 | 68 | 1012.0 |
| 20260905214607 | 90 | 38 | 3.5 | 9.6 | 0.00 | 0.00 | 0.00 | 67 | 1012.1 |
| 20260905213058 | 91 | 24 | 3.5 | 11.3 | 0.00 | 0.00 | 0.00 | 67 | 1012.0 |
| 20260905211559 | 91 | 360 | 5.2 | 12.2 | 0.00 | 0.00 | 0.00 | 67 | 1011.7 |
| 20260905210107 | 92 | 360 | 2.6 | 9.6 | 0.00 | 0.00 | 0.00 | 67 | 1011.7 |
| 20260905204558 | 93 | 33 | 5.2 | 11.3 | 0.00 | 0.00 | 0.00 | 65 | 1011.7 |
| 20260905203059 | 94 | 18 | 4.3 | 9.6 | 0.00 | 0.00 | 0.00 | 64 | 1011.8 |
| 20260905201553 | 94 | 51 | 2.6 | 8.7 | 0.00 | 0.00 | 0.00 | 63 | 1011.9 |
| 20260905200100 | 93 | 351 | 1.7 | 5.2 | 0.00 | 0.00 | 0.00 | 66 | 1011.8 |
| 20260905194548 | 92 | 58 | 3.5 | 7.8 | 0.00 | 0.00 | 0.00 | 66 | 1011.9 |
| 20260905193045 | 93 | 43 | 2.6 | 6.1 | 0.00 | 0.00 | 0.00 | 64 | 1012.0 |
| 20260905191544 | 93 | 330 | 1.7 | 5.2 | 0.00 | 0.00 | 0.00 | 66 | 1012.1 |
| 20260905190046 | 92 | 320 | 0.9 | 7.8 | 0.00 | 0.00 | 0.00 | 67 | 1012.4 |
| 20260905184539 | 92 | 341 | 3.5 | 8.7 | 0.00 | 0.00 | 0.00 | 65 | 1012.4 |
| 20260905183036 | 92 | 10 | 1.7 | 5.2 | 0.00 | 0.00 | 0.00 | 66 | 1012.3 |
| 20260905181535 | 92 | 49 | 2.6 | 7.8 | 0.00 | 0.00 | 0.00 | 66 | 1012.4 |
| 20260905180046 | 91 | 52 | 3.5 | 8.7 | 0.00 | 0.00 | 0.00 | 65 | 1012.4 |
| 20260905174526 | 91 | 70 | 3.5 | 7.8 | 0.00 | 0.00 | 0.00 | 67 | 1012.6 |
| 20260905173025 | 90 | 28 | 2.6 | 6.1 | 0.00 | 0.00 | 0.00 | 68 | 1012.5 |
| 20260905171530 | 90 | 41 | 5.2 | 9.6 | 0.00 | 0.00 | 0.00 | 69 | 1012.6 |
| 20260905170023 | 91 | 68 | 3.5 | 10.4 | 0.00 | 0.00 | 0.00 | 66 | 1012.8 |
| 20260905164520 | 91 | 37 | 1.7 | 9.6 | 0.00 | 0.00 | 0.00 | 68 | 1012.9 |
| 20260905163016 | 88 | 58 | 4.3 | 8.7 | 0.00 | 0.00 | 0.00 | 73 | 1012.9 |
| 20260905161523 | 88 | 65 | 3.5 | 7.8 | 0.00 | 0.00 | 0.00 | 70 | 1012.9 |
| 20260905160014 | 89 | 62 | 2.6 | 8.7 | 0.00 | 0.00 | 0.00 | 70 | 1012.8 |
| 20260905154511 | 89 | 68 | 0.9 | 7.0 | 0.00 | 0.00 | 0.00 | 72 | 1012.8 |